LFBLLFMC

Guest
Details From LFBL - Limoges Bellegarde
To LFMC - Le Cannet
Flight Number -
Tags Generated
Created
Modified
Stats Distance 267 nm / 495 km
Max Altitude 0 ft / 0 m
Waypoints 3
Social Downloads 0
Likes 0
Share VATSIM

Download

Looking for another format? Having issues loading an existing format? Contact us
Advertisement - Login to hide

Notes

Generated

Route

LFBL NASIK LFMC

ID Type Via Altitude Latitude Longitude Leg Dist Tot Dist Heading (true) Name
O LFBL APT - 0 ft / 0 m 45.85249˚ 1.17254˚ - 0 nm - -
NASIK FIX - 0 ft / 0 m 43.43083˚ 6.26750˚ 261 nm 261 nm 122° / 126° -
O LFMC APT - 0 ft / 0 m 43.38433˚ 6.37871˚ 5 nm 267 nm 120° / 120° -

Altitude Profile

Advertisement - Login to hide

Weather


0- 5 10 15 20 25 30 35+ Temperature / ° C

Clouds and Precipitation
Forecast for 2018-05-20 18:00 UTC. Updated 3 hours ago

Ground ~20,000 ft ~40,000 ft Winds

LFBL

Details ICAO LFBL (LIG)
Name Limoges Bellegarde
Region France
Timezone Europe/Paris (UTC+2.0)
Stats Elevation 1,300 ft / 396 m (AMSL)
Location 45.861896° 1.181368°
Runways 1
Magnetic Variation 0.477° E

METAR

LFBL 202030Z AUTO 10003KT 040V150 9999 ///TCU 17/09 Q1015 BECMG NSC

Decode

TAF

TAF LFBL 201700Z 2018/2118 04008KT CAVOK TEMPO 2018/2020 SCT040TCU PROB40 TEMPO 2018/2020 4000 -TSRA FEW060CB BECMG 2109/2111 SCT030 SCT040TCU TEMPO 2111/2118 4000 SHRA SCT050CB PROB40 TEMPO 2113/2118 VRB15G25KT TSRA

Decode

Departure Runways

ID Width Length Bearing (true) Bearing (mag) Surface Threshold Offset Overrun Length
03 148 ft / 45 m 8,202 ft / 2,500 m 33.16° 32.68° Asphalt 0 ft / 0 m 0 ft / 0 m
21 148 ft / 45 m 8,202 ft / 2,500 m 213.18° 212.70° Asphalt 196 ft / 60 m 0 ft / 0 m

LFMC

Details ICAO LFMC
Name Le Cannet
Region France
Timezone Europe/Paris (UTC+2.0)
Stats Elevation 264 ft / 80 m (AMSL)
Location 43.384430° 6.385368°
Runways 2
Magnetic Variation 1.875° E

METAR

LFMC 202030Z AUTO 25003KT 9999 ////// 18/13 Q1014

Decode

TAF

Not found

Destination Runways

ID Width Length Bearing (true) Bearing (mag) Surface Threshold Offset Overrun Length
09 98 ft / 30 m 2,619 ft / 798 m 88.40° 86.53° Asphalt 0 ft / 0 m 0 ft / 0 m
13 98 ft / 30 m 4,789 ft / 1,460 m 130.24° 128.37° Asphalt 984 ft / 300 m 0 ft / 0 m
27 98 ft / 30 m 2,619 ft / 798 m 268.41° 266.54° Asphalt 0 ft / 0 m 0 ft / 0 m
31 98 ft / 30 m 4,789 ft / 1,460 m 310.25° 308.38° Asphalt 312 ft / 95 m 0 ft / 0 m

Approach Navaids

Runway Type Ident Frequency Range Bearing (true) Bearing (mag) Slope Elevation
09 Localiser LC 109.30 MHz 18 nm / 33 km 87.22° 85.34° - 259 ft / 79 m (AMSL)
09 Glidescope LC 109.30 MHz 10 nm / 19 km 88.40° 86.53° 4.00° 1,060 ft / 323 m (AMSL)
09 DME LC 109.30 MHz 18 nm / 33 km - - - 1,060 ft / 323 m (AMSL)